sat.trackr.live / text

‹ back to catalog

GLOBALSTAR M066

NORAD 32265 · 2007-048C

PAYLOAD ACTIVE UNKNOWN

§ Identity

Operator
Country
GLOB
Launch date
2007-10-20
Launch site
TYMSC
Launch vehicle
Mass (kg)
RCS (m²)
1.94

Purposes: comms

External: N2YO · Heavens-Above · Gunter

§ Orbital elements

Epoch: 2026-05-25T04:07:59.497824Z

Period
117.04 min
Inclination
51.9563°
Eccentricity
0.0005007
Mean motion
12.30388866 rev/d
Perigee alt
1,543.6 km
Apogee alt
1,551.6 km
Semi-major
7,925.7 km
B*
1.8880e-4
RAAN
123.9806°
Arg perigee
353.1037°
Mean anomaly
90.1775°
Rev number
85,739

§ Raw data

GLOBALSTAR M0661 32265U 07048C   26145.17221641 -.00000072  00000+0  18880-3 0  99962 32265  51.9563 123.9806 0005007 353.1037  90.1775 12.30388866857398

JSON: /api/v1/satellites/32265 · /tle

For live sub-satellite position, see the globe view (requires WebGL).

§ Visibility from observer

Set your observer location to see the next 7 days of passes ≥ 10°. The values pass through the URL so the page stays shareable.

No JS? Fill the form by hand. The geolocation button needs JavaScript.